Maple Lake, MN

4:00 AM CDT on March 29, 2017 (GMT -0500)
Maple Lake Municipal

Weather History for KMGG - October, 2011

Change the Weather History Date:

Friday, October 28, 2011

  Actual Average (KSTC) Record (KSTC)
Temperature  
Mean Temperature 42 °F -  
Max Temperature 52 °F 51 °F 73 °F (1912)
Min Temperature 32 °F 28 °F 7 °F (1919)
Degree Days  
Heating Degree Days 23    
Moisture  
Dew Point 28 °F    
Average Humidity 63    
Maximum Humidity 96    
Minimum Humidity 36    
Precipitation  
Precipitation 0.00 in - - ()
Sea Level Pressure  
Sea Level Pressure 30.03 in    
Wind  
Wind Speed 6 mph (WSW)    
Max Wind Speed 17 mph    
Max Gust Speed 23 mph    
Visibility 10 miles    
Events      
Averages and records for this station are not official NWS values.
T = Trace of Precipitation, MM = Missing Value Source: NWS Daily Summary

Daily Weather History Graph

Daily Weather History Graph

Search for Another Location

Airport or City:

Trip Planner

Search our weather history database for the weather conditions in past years. The results will help you decide how hot, cold, wet, or windy it might be!

Date:

Astronomy

Oct. 28, 2011 Rise Set
Actual Time 7:49 AM CDT 6:09 PM CDT
Civil Twilight 7:18 AM CDT 6:40 PM CDT
Nautical Twilight 6:43 AM CDT 7:14 PM CDT
Astronomical Twilight 6:09 AM CDT 7:48 PM CDT
Moon 10:13 AM CDT (10/28) 7:24 PM CDT (10/28)
Length of Visible Light 11h 21m
Length of Day
10h 20m
Waxing Crescent, 5% of the Moon is Illuminated
Oct 28
Waxing Crescent
Nov 2
First Quarter
Nov 10
Full
Nov 18
Last Quarter
Nov 25
New

Hourly Weather History & Observations

Time (CDT) Temp. Windchill Dew Point Humidity Pressure Visibility Wind Dir Wind Speed Gust Speed Precip Events Conditions
12:12 AM 32.7 °F 29.6 °F 31.8 °F 96% 30.06 in 10.0 mi SSE 3.5 mph - N/A   Clear
12:33 AM 32.9 °F 29.8 °F 30.0 °F 89% 30.06 in 10.0 mi South 3.5 mph - N/A   Clear
12:52 AM 33.8 °F 30.8 °F 29.3 °F 84% 30.06 in 10.0 mi South 3.5 mph - N/A   Clear
1:12 AM 34.7 °F 30.6 °F 28.0 °F 77% 30.06 in 10.0 mi South 4.6 mph - N/A   Clear
1:33 AM 34.3 °F 30.2 °F 28.2 °F 78% 30.05 in 10.0 mi SSE 4.6 mph - N/A   Clear
1:53 AM 34.3 °F 29.2 °F 27.7 °F 77% 30.05 in 10.0 mi SSE 5.8 mph - N/A   Scattered Clouds
2:12 AM 34.0 °F 29.8 °F 27.5 °F 77% 30.05 in 10.0 mi SSE 4.6 mph - N/A   Clear
2:32 AM 34.0 °F 29.8 °F 27.5 °F 77% 30.05 in 10.0 mi South 4.6 mph - N/A   Clear
3:12 AM 34.2 °F 30.0 °F 27.5 °F 77% 30.05 in 10.0 mi South 4.6 mph - N/A   Scattered Clouds
3:33 AM 34.9 °F 29.9 °F 27.5 °F 74% 30.03 in 10.0 mi SSE 5.8 mph - N/A   Mostly Cloudy
3:53 AM 34.9 °F 32.0 °F 27.5 °F 74% 30.03 in 10.0 mi South 3.5 mph - N/A   Overcast
4:12 AM 35.4 °F 31.5 °F 28.0 °F 75% 30.02 in 10.0 mi SSE 4.6 mph - N/A   Overcast
4:33 AM 35.6 °F 31.7 °F 27.9 °F 73% 30.02 in 10.0 mi South 4.6 mph - N/A   Overcast
4:52 AM 35.6 °F 30.7 °F 27.9 °F 73% 30.02 in 10.0 mi SSE 5.8 mph - N/A   Overcast
5:12 AM 35.2 °F 31.2 °F 27.9 °F 74% 30.02 in 10.0 mi SSE 4.6 mph - N/A   Overcast
5:33 AM 35.2 °F 32.4 °F 28.0 °F 75% 30.02 in 10.0 mi South 3.5 mph - N/A   Overcast
5:52 AM 35.6 °F 32.8 °F 27.7 °F 73% 30.02 in 10.0 mi SSW 3.5 mph - N/A   Overcast
6:12 AM 35.6 °F 30.7 °F 27.3 °F 72% 30.01 in 10.0 mi South 5.8 mph - N/A   Overcast
6:32 AM 35.6 °F 31.7 °F 27.0 °F 71% 30.01 in 10.0 mi South 4.6 mph - N/A   Overcast
6:52 AM 34.9 °F - 26.8 °F 72% 30.02 in 10.0 mi Calm Calm - N/A   Overcast
7:12 AM 34.2 °F - 26.6 °F 74% 30.02 in 10.0 mi Calm Calm - N/A   Mostly Cloudy
7:32 AM 34.3 °F - 27.1 °F 75% 30.02 in 10.0 mi Calm Calm - N/A   Overcast
7:53 AM 34.2 °F - 27.5 °F 77% 30.02 in 10.0 mi Calm Calm - N/A   Overcast
8:13 AM 34.2 °F - 27.7 °F 77% 30.02 in 10.0 mi Calm Calm - N/A   Mostly Cloudy
8:52 AM 33.4 °F - 28.0 °F 81% 30.03 in 10.0 mi Calm Calm - N/A   Clear
9:13 AM 36.1 °F 33.5 °F 29.3 °F 76% 30.03 in 10.0 mi West 3.5 mph - N/A   Clear
9:32 AM 38.5 °F 35.0 °F 30.4 °F 73% 30.03 in 10.0 mi West 4.6 mph - N/A   Clear
9:52 AM 41.4 °F 36.2 °F 32.0 °F 69% 30.04 in 10.0 mi WNW 8.1 mph - N/A   Clear
10:13 AM 43.5 °F 40.1 °F 33.1 °F 67% 30.04 in 10.0 mi WNW 5.8 mph - N/A   Clear
10:33 AM 44.6 °F 40.7 °F 34.0 °F 66% 30.04 in 10.0 mi WNW 6.9 mph - N/A   Scattered Clouds
10:52 AM 46.0 °F 43.1 °F 34.9 °F 65% 30.05 in 10.0 mi NW 5.8 mph - N/A   Scattered Clouds
11:13 AM 48.0 °F - 35.8 °F 63% 30.05 in 10.0 mi NW 8.1 mph - N/A   Scattered Clouds
11:32 AM 46.4 °F 41.5 °F 35.6 °F 66% 30.05 in 10.0 mi NW 10.4 mph - N/A   Mostly Cloudy
11:52 AM 48.4 °F - 34.9 °F 60% 30.05 in 10.0 mi NW 8.1 mph 17.3 mph N/A   Scattered Clouds
12:12 PM 50.2 °F - 33.6 °F 53% 30.05 in 10.0 mi WNW 15.0 mph - N/A   Clear
12:33 PM 50.4 °F - 30.7 °F 47% 30.04 in 10.0 mi West 15.0 mph 20.7 mph N/A   Clear
12:52 PM 50.9 °F - 25.7 °F 38% 30.04 in 10.0 mi NW 12.7 mph - N/A   Clear
1:13 PM 51.8 °F - 27.1 °F 39% 30.03 in 10.0 mi WNW 15.0 mph 19.6 mph N/A   Clear
1:33 PM 51.3 °F - 26.4 °F 38% 30.03 in 10.0 mi WNW 15.0 mph 20.7 mph N/A   Clear
2:12 PM 52.0 °F - 25.7 °F 36% 30.02 in 10.0 mi WNW 15.0 mph 23.0 mph N/A   Clear
2:33 PM 51.8 °F - 26.1 °F 37% 30.02 in 10.0 mi WNW 17.3 mph 21.9 mph N/A   Clear
2:52 PM 51.8 °F - 26.6 °F 38% 30.02 in 10.0 mi WNW 15.0 mph 19.6 mph N/A   Clear
3:12 PM 51.4 °F - 25.9 °F 37% 30.01 in 10.0 mi WNW 13.8 mph 23.0 mph N/A   Clear
3:32 PM 51.8 °F - 25.5 °F 36% 30.01 in 10.0 mi WNW 16.1 mph - N/A   Clear
3:53 PM 51.1 °F - 25.9 °F 38% 30.01 in 10.0 mi West 16.1 mph 19.6 mph N/A   Clear
4:13 PM 50.9 °F - 25.2 °F 37% 30.01 in 10.0 mi WNW 13.8 mph 18.4 mph N/A   Clear
4:32 PM 50.4 °F - 25.7 °F 38% 30.01 in 10.0 mi WNW 8.1 mph 17.3 mph N/A   Clear
4:52 PM 49.6 °F - 25.5 °F 39% 30.02 in 10.0 mi WNW 11.5 mph 16.1 mph N/A   Clear
5:13 PM 49.1 °F - 25.7 °F 40% 30.02 in 10.0 mi WNW 9.2 mph - N/A   Clear
5:32 PM 48.2 °F - 26.1 °F 42% 30.02 in 10.0 mi WNW 11.5 mph 18.4 mph N/A   Clear
5:53 PM 46.8 °F - 25.7 °F 44% 30.02 in 10.0 mi West 11.5 mph 16.1 mph N/A   Clear
6:12 PM 45.7 °F 41.5 °F 26.4 °F 47% 30.02 in 10.0 mi WNW 8.1 mph - N/A   Clear
6:51 PM 43.3 °F 39.9 °F 27.0 °F 52% 30.03 in 10.0 mi West 5.8 mph - N/A   Clear
7:13 PM 42.8 °F 40.1 °F 27.1 °F 54% 30.04 in 10.0 mi West 4.6 mph - N/A   Clear
7:32 PM 42.3 °F 39.4 °F 27.1 °F 55% 30.04 in 10.0 mi West 4.6 mph - N/A   Clear
7:52 PM 40.5 °F 37.3 °F 27.0 °F 59% 30.05 in 10.0 mi West 4.6 mph - N/A   Clear
8:13 PM 41.0 °F 38.0 °F 27.3 °F 58% 30.05 in 10.0 mi West 4.6 mph - N/A   Clear
8:33 PM 37.0 °F 34.5 °F 27.1 °F 67% 30.04 in 10.0 mi West 3.5 mph - N/A   Clear
8:52 PM 36.5 °F 33.9 °F 27.9 °F 71% 30.04 in 10.0 mi West 3.5 mph - N/A   Clear
9:12 PM 35.1 °F 31.0 °F 27.7 °F 74% 30.04 in 10.0 mi West 4.6 mph - N/A   Clear
9:32 PM 34.0 °F 31.0 °F 28.0 °F 79% 30.04 in 10.0 mi West 3.5 mph - N/A   Clear
9:52 PM 33.4 °F - 28.9 °F 84% 30.04 in 10.0 mi Calm Calm - N/A   Clear
10:13 PM 32.2 °F 28.9 °F 28.4 °F 86% 30.04 in 10.0 mi West 3.5 mph - N/A   Scattered Clouds
10:32 PM 32.0 °F 28.7 °F 28.8 °F 88% 30.04 in 10.0 mi West 3.5 mph - N/A   Scattered Clouds
10:53 PM 32.9 °F 28.5 °F 28.6 °F 84% 30.04 in 10.0 mi West 4.6 mph - N/A   Mostly Cloudy
11:12 PM 34.5 °F 30.4 °F 28.8 °F 79% 30.04 in 10.0 mi West 4.6 mph - N/A   Scattered Clouds
11:32 PM 35.8 °F 31.9 °F 28.2 °F 74% 30.03 in 10.0 mi West 4.6 mph - N/A   Scattered Clouds
11:53 PM 32.0 °F 27.5 °F 27.1 °F 82% 30.04 in 10.0 mi West 4.6 mph - N/A   Scattered Clouds